Location: Arlington
(40.6323°N, 74.1651°W)
Time: 01:58:34
(UTC+00:00)

Meteor 2-11 Rocket - Pass Details

Date: 22 November 2019
Orbit: 940 x 956 km, 82.5° (Epoch: 08 December)

Event Time Altitude Azimuth Distance (km) Brightness Sun altitude
Rises 22:19:59 0° 354° (N) 3,629 7.3 -8.9°
Reaches altitude 10° 22:22:31 10° 358° (N) 2,682 6.6 -9.3°
Maximum altitude 22:28:37 67° 80° (E) 1,028 4.4 -10.4°
Drops below altitude 10° 22:34:42 10° 163° (SSE) 2,674 6.8 -11.5°
Sets 22:37:13 0° 166° (SSE) 3,617 7.5 -12.0°
